Imagination — C6FN2 — position and weather

sailwx.info

Track history (hours):
 
Tides and Currents Weather Stations Pressure Air Temp Water Temp Dewpoint Dewpoint Depression Visibility Wind Speed Wind Dir Waves Ship Positions

Imagination

Operator: Carnival Cruise Lines

Last reported at 2020-Jan-18 12:00 UTC. Time now 2020-Jan-18 20:46 UTC.
Position N 31°54' W 117°00'.

Type: Passenger vessel. MMSI: 309933000.

Wind from 040 at 1 knots

Barometer 1018.0 mb
Air temperature 13.0 ° C
Visibility: greater than 10.8 NM
Dewpoint 7.4 ° C
Water temperature 17.0 ° C

Date/timePositionNaut miles runAvg speedWind from/ knotsBaromVisibWave heightAir tempDewpointWater temp
2020-Jan-18 12:00N 31°54' W 117°00'1711.6 040 / 11018.010.8 13.0 7.417.0
2020-Jan-18 10:30N 32°04' W 117°17'4 7.7
2020-Jan-18 10:01N 32°06' W 117°21'40 5.7
2020-Jan-18 03:00N 31°30' W 117°00'24 7.9 320 / 301019.010.8 14.0 4.016.0
2020-Jan-18 00:00N 31°18' W 117°24'39 5.6 330 / 271019.010.8 14.0 4.017.0
2020-Jan-17 17:00N 31°42' W 118°00'28 7.1 330 / 201020.010.8 15.0 5.316.0
2020-Jan-17 13:00N 32°06' W 117°42'1212.0 200 / 101018.010.8 14.0 8.516.0
2020-Jan-17 12:00N 32°18' W 117°42'612.6 250 / 141018.010.8 13.0 7.417.0
2020-Jan-17 11:30N 32°22' W 117°47'26 8.7
2020-Jan-17 08:30N 32°48' W 117°53'13 8.8
2020-Jan-17 07:01N 33°00' W 117°58'17 8.6
2020-Jan-17 05:00N 33°17' W 118°05'5 9.6
2020-Jan-17 04:30N 33°21' W 118°07'5 9.7
2020-Jan-17 04:00N 33°26' W 118°09'14 9.4
2020-Jan-17 02:31N 33°39' W 118°12'6 2.8
2020-Jan-17 00:29N 33°45' W 118°11'0 0.0
2020-Jan-16 17:29N 33°45' W 118°11'0 0.0
2020-Jan-16 16:59N 33°45' W 118°11'0 0.0
2020-Jan-16 13:59N 33°45' W 118°11'4 3.7
2020-Jan-16 13:01N 33°41' W 118°11'4 8.8
2020-Jan-16 12:31N 33°37' W 118°10'4 8.2
2020-Jan-16 12:00N 33°33' W 118°09'8 7.5
2020-Jan-16 11:00N 33°26' W 118°05'11 7.2
2020-Jan-16 09:30N 33°16' W 118°00'7 7.0
2020-Jan-16 08:31N 33°11' W 117°55'15 3.7
2020-Jan-16 04:30N 32°57' W 117°49'3 6.9
2020-Jan-16 04:00N 32°57' W 117°53'3 6.6
2020-Jan-16 03:30N 32°57' W 117°57'6 5.8
2020-Jan-16 02:30N 32°52' W 118°01'7 7.3
2020-Jan-16 01:30N 32°46' W 117°57'12 8.2
2020-Jan-16 00:00N 32°36' W 117°48'3 5.2 320 / 101012.010.8 14.0 6.417.0
2020-Jan-15 23:31N 32°34' W 117°46'8 7.6
2020-Jan-15 22:31N 32°28' W 117°41'19 7.7
2020-Jan-15 20:00N 32°12' W 117°27'4 7.3
2020-Jan-15 19:30N 32°10' W 117°25'1912.4
2020-Jan-15 18:00N 31°54' W 117°12'514.2 330 / 131015.010.8 14.0 6.416.0
2020-Jan-15 17:39N 31°58' W 117°16'20 7.4
2020-Jan-15 15:00N 31°42' W 117°30'1514.9 350 / 101013.010.8 13.0 7.416.0
2020-Jan-15 14:00N 31°40' W 117°47'14 9.4
2020-Jan-15 12:30N 31°31' W 117°60'816.0
2020-Jan-15 12:00N 31°24' W 117°54'1 3.0 350 / 181014.010.8 12.0 6.217.0
2020-Jan-15 11:30N 31°25' W 117°54'9 4.4
2020-Jan-15 09:30N 31°32' W 117°48'8 7.5
2020-Jan-15 08:30N 31°40' W 117°48'62 4.6
2020-Jan-14 19:00N 31°48' W 116°36'18 3.1 1017.027.0 15.0 9.717.0
2020-Jan-14 13:07N 31°55' W 116°56'10 9.0
2020-Jan-14 12:00N 31°58' W 117°07'4 9.0
2020-Jan-14 11:30N 31°59' W 117°12'4 8.8
2020-Jan-14 11:00N 32°01' W 117°17'9 8.8
2020-Jan-14 10:00N 32°07' W 117°24'24 9.5
2020-Jan-14 07:30N 32°25' W 117°43'14 9.6
2020-Jan-14 06:01N 32°39' W 117°49'5 9.7
2020-Jan-14 05:31N 32°44' W 117°49'41 9.2
2020-Jan-14 01:00N 33°19' W 118°15'4 0.9
2020-Jan-13 20:30N 33°21' W 118°19'0 0.0
2020-Jan-13 18:00N 33°21' W 118°19'3197.3
2020-Jan-13 18:00N 33°18' W 118°18'3 3.1 1017.027.0 17.0 5.617.0
2020-Jan-13 17:00N 33°21' W 118°19'22 4.4
2020-Jan-13 12:00N 33°00' W 118°10'7439.9
2020-Jan-13 12:00N 32°54' W 118°06'2 2.5 320 / 21015.010.8 13.0 5.117.0
2020-Jan-13 11:01N 32°55' W 118°03'8 2.8
2020-Jan-13 08:00N 32°58' W 117°54'11 7.2
2020-Jan-13 06:31N 33°08' W 117°59'11 7.4
2020-Jan-13 05:00N 33°18' W 118°05'7456.5
2020-Jan-13 05:00N 33°12' W 118°00'1122.6 240 / 61015.010.8 14.0 6.417.0
2020-Jan-13 04:30N 33°21' W 118°07'4 7.6
2020-Jan-13 04:00N 33°25' W 118°09'4 7.9
2020-Jan-13 03:30N 33°29' W 118°10'13 8.7
2020-Jan-13 02:00N 33°41' W 118°11'4 6.6
2020-Jan-13 01:28N 33°45' W 118°11'0 0.0
2020-Jan-13 00:25N 33°45' W 118°11'0 0.0
2020-Jan-12 20:25N 33°45' W 118°11'0 0.0
2020-Jan-12 18:28N 33°45' W 118°11'0 0.0
2020-Jan-12 17:28N 33°45' W 118°11'0 0.0
2020-Jan-12 16:28N 33°45' W 118°11'0 0.0
2020-Jan-12 15:58N 33°45' W 118°11'0 0.0
2020-Jan-12 15:28N 33°45' W 118°11'8 2.7
2020-Jan-12 12:30N 33°37' W 118°10'9 9.2
2020-Jan-12 11:31N 33°28' W 118°06'10 9.7
2020-Jan-12 10:30N 33°19' W 118°02'1510.3
2020-Jan-12 09:00N 33°05' W 117°55'612.3
2020-Jan-12 08:31N 32°59' W 117°53'2717.8
2020-Jan-12 07:00N 32°34' W 117°44'54 2.9
2020-Jan-11 12:00N 31°54' W 117°00'1312.8 340 / 121019.010.8 13.0 7.416.0
2020-Jan-11 11:00N 31°60' W 117°13'42 9.4
2020-Jan-11 06:30N 32°32' W 117°46'29 9.6
2020-Jan-11 03:30N 32°60' W 117°52'5 9.4
2020-Jan-11 03:00N 33°04' W 117°54'5 9.6
2020-Jan-11 02:30N 33°08' W 117°58'815.3
2020-Jan-11 02:00N 33°00' W 118°00'510.2 240 / 101020.010.8 14.0 8.517.0
2020-Jan-11 01:30N 33°04' W 118°04'11 7.5
2020-Jan-11 00:00N 32°55' W 117°56'4 7.5
2020-Jan-10 23:30N 32°55' W 117°51'11 1.8
2020-Jan-10 17:30N 32°58' W 118°03'3 6.7
2020-Jan-10 17:00N 32°56' W 118°00'1010.1
2020-Jan-10 16:00N 32°54' W 117°48'0 0.8 090 / 101020.010.8 14.0 8.517.0
2020-Jan-10 15:30N 32°54' W 117°48'22 7.4
2020-Jan-10 12:30N 32°32' W 117°44'5 2.4
2020-Jan-10 10:30N 32°35' W 117°48'15 7.7
2020-Jan-10 08:30N 32°50' W 117°54'4 7.6
2020-Jan-10 08:00N 32°54' W 117°55'4 7.6
2020-Jan-10 07:30N 32°57' W 117°57'4 7.6
2020-Jan-10 07:00N 33°01' W 117°58'4 7.6
2020-Jan-10 06:30N 33°04' W 117°60'42 8.3
2020-Jan-10 01:29N 33°45' W 118°11'0 0.0
2020-Jan-10 00:59N 33°45' W 118°11'0 0.0
2020-Jan-09 22:29N 33°45' W 118°11'0 0.0
2020-Jan-09 18:59N 33°45' W 118°11'0 0.0
2020-Jan-09 17:29N 33°45' W 118°11'0 0.0
2020-Jan-09 14:29N 33°45' W 118°11'31 6.3
2020-Jan-09 09:30N 33°15' W 118°00'4 7.8
2020-Jan-09 09:00N 33°11' W 117°58'4 7.4
2020-Jan-09 08:30N 33°10' W 117°54'27 5.3
2020-Jan-09 03:30N 32°44' W 117°49'7 7.0
2020-Jan-09 02:30N 32°37' W 117°47'21 8.5
2020-Jan-09 00:00N 32°18' W 117°36'18 5.9 270 / 131012.010.8 14.0 4.017.0
2020-Jan-08 21:00N 32°05' W 117°22'6 7.1
2020-Jan-08 20:08N 31°60' W 117°18'14 6.0
2020-Jan-08 17:52N 31°46' W 117°16'4 9.2
2020-Jan-08 17:29N 31°45' W 117°20'2412.3
2020-Jan-08 15:30N 31°38' W 117°48'612.2
2020-Jan-08 15:00N 31°36' W 117°54'1010.1
2020-Jan-08 14:00N 31°34' W 118°06'6 6.3
2020-Jan-08 13:00N 31°28' W 118°03'1615.9
2020-Jan-08 12:00N 31°18' W 117°48'   310 / 201014.010.8 14.010.517.0
Track history (hours):
 
Tides and Currents Weather Stations Pressure Air Temp Water Temp Dewpoint Dewpoint Depression Visibility Wind Speed Wind Dir Waves Ship Positions

Imagination

Operator: Carnival Cruise Lines

Last reported at 2020-Jan-18 12:00 UTC. Time now 2020-Jan-18 20:46 UTC.
Position N 31°54' W 117°00'.

Type: Passenger vessel. MMSI: 309933000.

Wind from 040 at 1 knots

Barometer 1018.0 mb
Air temperature 13.0 ° C
Visibility: greater than 10.8 NM
Dewpoint 7.4 ° C
Water temperature 17.0 ° C

Date/timePositionNaut miles runAvg speedWind from/ knotsBaromVisibWave heightAir tempDewpointWater temp
2020-Jan-18 12:00N 31°54' W 117°00'1711.6 040 / 11018.010.8 13.0 7.417.0
2020-Jan-18 10:30N 32°04' W 117°17'4 7.7
2020-Jan-18 10:01N 32°06' W 117°21'40 5.7
2020-Jan-18 03:00N 31°30' W 117°00'24 7.9 320 / 301019.010.8 14.0 4.016.0
2020-Jan-18 00:00N 31°18' W 117°24'39 5.6 330 / 271019.010.8 14.0 4.017.0
2020-Jan-17 17:00N 31°42' W 118°00'28 7.1 330 / 201020.010.8 15.0 5.316.0
2020-Jan-17 13:00N 32°06' W 117°42'1212.0 200 / 101018.010.8 14.0 8.516.0
2020-Jan-17 12:00N 32°18' W 117°42'612.6 250 / 141018.010.8 13.0 7.417.0
2020-Jan-17 11:30N 32°22' W 117°47'26 8.7
2020-Jan-17 08:30N 32°48' W 117°53'13 8.8
2020-Jan-17 07:01N 33°00' W 117°58'17 8.6
2020-Jan-17 05:00N 33°17' W 118°05'5 9.6
2020-Jan-17 04:30N 33°21' W 118°07'5 9.7
2020-Jan-17 04:00N 33°26' W 118°09'14 9.4
2020-Jan-17 02:31N 33°39' W 118°12'6 2.8
2020-Jan-17 00:29N 33°45' W 118°11'0 0.0
2020-Jan-16 17:29N 33°45' W 118°11'0 0.0
2020-Jan-16 16:59N 33°45' W 118°11'0 0.0
2020-Jan-16 13:59N 33°45' W 118°11'4 3.7
2020-Jan-16 13:01N 33°41' W 118°11'4 8.8
2020-Jan-16 12:31N 33°37' W 118°10'4 8.2
2020-Jan-16 12:00N 33°33' W 118°09'8 7.5
2020-Jan-16 11:00N 33°26' W 118°05'11 7.2
2020-Jan-16 09:30N 33°16' W 118°00'7 7.0
2020-Jan-16 08:31N 33°11' W 117°55'15 3.7
2020-Jan-16 04:30N 32°57' W 117°49'3 6.9
2020-Jan-16 04:00N 32°57' W 117°53'3 6.6
2020-Jan-16 03:30N 32°57' W 117°57'6 5.8
2020-Jan-16 02:30N 32°52' W 118°01'7 7.3
2020-Jan-16 01:30N 32°46' W 117°57'12 8.2
2020-Jan-16 00:00N 32°36' W 117°48'3 5.2 320 / 101012.010.8 14.0 6.417.0
2020-Jan-15 23:31N 32°34' W 117°46'8 7.6
2020-Jan-15 22:31N 32°28' W 117°41'19 7.7
2020-Jan-15 20:00N 32°12' W 117°27'4 7.3
2020-Jan-15 19:30N 32°10' W 117°25'1912.4
2020-Jan-15 18:00N 31°54' W 117°12'514.2 330 / 131015.010.8 14.0 6.416.0
2020-Jan-15 17:39N 31°58' W 117°16'20 7.4
2020-Jan-15 15:00N 31°42' W 117°30'1514.9 350 / 101013.010.8 13.0 7.416.0
2020-Jan-15 14:00N 31°40' W 117°47'14 9.4
2020-Jan-15 12:30N 31°31' W 117°60'816.0
2020-Jan-15 12:00N 31°24' W 117°54'1 3.0 350 / 181014.010.8 12.0 6.217.0
2020-Jan-15 11:30N 31°25' W 117°54'9 4.4
2020-Jan-15 09:30N 31°32' W 117°48'8 7.5
2020-Jan-15 08:30N 31°40' W 117°48'62 4.6
2020-Jan-14 19:00N 31°48' W 116°36'18 3.1 1017.027.0 15.0 9.717.0
2020-Jan-14 13:07N 31°55' W 116°56'10 9.0
2020-Jan-14 12:00N 31°58' W 117°07'4 9.0
2020-Jan-14 11:30N 31°59' W 117°12'4 8.8
2020-Jan-14 11:00N 32°01' W 117°17'9 8.8
2020-Jan-14 10:00N 32°07' W 117°24'24 9.5
2020-Jan-14 07:30N 32°25' W 117°43'14 9.6
2020-Jan-14 06:01N 32°39' W 117°49'5 9.7
2020-Jan-14 05:31N 32°44' W 117°49'41 9.2
2020-Jan-14 01:00N 33°19' W 118°15'4 0.9
2020-Jan-13 20:30N 33°21' W 118°19'0 0.0
2020-Jan-13 18:00N 33°21' W 118°19'3197.3
2020-Jan-13 18:00N 33°18' W 118°18'3 3.1 1017.027.0 17.0 5.617.0
2020-Jan-13 17:00N 33°21' W 118°19'22 4.4
2020-Jan-13 12:00N 33°00' W 118°10'7439.9
2020-Jan-13 12:00N 32°54' W 118°06'2 2.5 320 / 21015.010.8 13.0 5.117.0
2020-Jan-13 11:01N 32°55' W 118°03'8 2.8
2020-Jan-13 08:00N 32°58' W 117°54'11 7.2
2020-Jan-13 06:31N 33°08' W 117°59'11 7.4
2020-Jan-13 05:00N 33°18' W 118°05'7456.5
2020-Jan-13 05:00N 33°12' W 118°00'1122.6 240 / 61015.010.8 14.0 6.417.0
2020-Jan-13 04:30N 33°21' W 118°07'4 7.6
2020-Jan-13 04:00N 33°25' W 118°09'4 7.9
2020-Jan-13 03:30N 33°29' W 118°10'13 8.7
2020-Jan-13 02:00N 33°41' W 118°11'4 6.6
2020-Jan-13 01:28N 33°45' W 118°11'0 0.0
2020-Jan-13 00:25N 33°45' W 118°11'0 0.0
2020-Jan-12 20:25N 33°45' W 118°11'0 0.0
2020-Jan-12 18:28N 33°45' W 118°11'0 0.0
2020-Jan-12 17:28N 33°45' W 118°11'0 0.0
2020-Jan-12 16:28N 33°45' W 118°11'0 0.0
2020-Jan-12 15:58N 33°45' W 118°11'0 0.0
2020-Jan-12 15:28N 33°45' W 118°11'8 2.7
2020-Jan-12 12:30N 33°37' W 118°10'9 9.2
2020-Jan-12 11:31N 33°28' W 118°06'10 9.7
2020-Jan-12 10:30N 33°19' W 118°02'1510.3
2020-Jan-12 09:00N 33°05' W 117°55'612.3
2020-Jan-12 08:31N 32°59' W 117°53'2717.8
2020-Jan-12 07:00N 32°34' W 117°44'54 2.9
2020-Jan-11 12:00N 31°54' W 117°00'1312.8 340 / 121019.010.8 13.0 7.416.0
2020-Jan-11 11:00N 31°60' W 117°13'42 9.4
2020-Jan-11 06:30N 32°32' W 117°46'29 9.6
2020-Jan-11 03:30N 32°60' W 117°52'5 9.4
2020-Jan-11 03:00N 33°04' W 117°54'5 9.6
2020-Jan-11 02:30N 33°08' W 117°58'815.3
2020-Jan-11 02:00N 33°00' W 118°00'510.2 240 / 101020.010.8 14.0 8.517.0
2020-Jan-11 01:30N 33°04' W 118°04'11 7.5
2020-Jan-11 00:00N 32°55' W 117°56'4 7.5
2020-Jan-10 23:30N 32°55' W 117°51'11 1.8
2020-Jan-10 17:30N 32°58' W 118°03'3 6.7
2020-Jan-10 17:00N 32°56' W 118°00'1010.1
2020-Jan-10 16:00N 32°54' W 117°48'0 0.8 090 / 101020.010.8 14.0 8.517.0
2020-Jan-10 15:30N 32°54' W 117°48'22 7.4
2020-Jan-10 12:30N 32°32' W 117°44'5 2.4
2020-Jan-10 10:30N 32°35' W 117°48'15 7.7
2020-Jan-10 08:30N 32°50' W 117°54'4 7.6
2020-Jan-10 08:00N 32°54' W 117°55'4 7.6
2020-Jan-10 07:30N 32°57' W 117°57'4 7.6
2020-Jan-10 07:00N 33°01' W 117°58'4 7.6
2020-Jan-10 06:30N 33°04' W 117°60'42 8.3
2020-Jan-10 01:29N 33°45' W 118°11'0 0.0
2020-Jan-10 00:59N 33°45' W 118°11'0 0.0
2020-Jan-09 22:29N 33°45' W 118°11'0 0.0
2020-Jan-09 18:59N 33°45' W 118°11'0 0.0
2020-Jan-09 17:29N 33°45' W 118°11'0 0.0
2020-Jan-09 14:29N 33°45' W 118°11'31 6.3
2020-Jan-09 09:30N 33°15' W 118°00'4 7.8
2020-Jan-09 09:00N 33°11' W 117°58'4 7.4
2020-Jan-09 08:30N 33°10' W 117°54'27 5.3
2020-Jan-09 03:30N 32°44' W 117°49'7 7.0
2020-Jan-09 02:30N 32°37' W 117°47'21 8.5
2020-Jan-09 00:00N 32°18' W 117°36'18 5.9 270 / 131012.010.8 14.0 4.017.0
2020-Jan-08 21:00N 32°05' W 117°22'6 7.1
2020-Jan-08 20:08N 31°60' W 117°18'14 6.0
2020-Jan-08 17:52N 31°46' W 117°16'4 9.2
2020-Jan-08 17:29N 31°45' W 117°20'2412.3
2020-Jan-08 15:30N 31°38' W 117°48'612.2
2020-Jan-08 15:00N 31°36' W 117°54'1010.1
2020-Jan-08 14:00N 31°34' W 118°06'6 6.3
2020-Jan-08 13:00N 31°28' W 118°03'1615.9
2020-Jan-08 12:00N 31°18' W 117°48'   310 / 201014.010.8 14.010.517.0

Dump ship's entire track history